Weather History for KTTS - September, 2013

Change the Weather History Date:

Thursday, September 12, 2013

  Actual Average Record
Temperature  
Mean Temperature 79 °F -  
Max Temperature 88 °F 84 °F 93 °F (2010)
Min Temperature 71 °F 71 °F 66 °F (1998)
Cooling Degree Days 14    
Growing Degree Days 29 (Base 50)    
Moisture  
Dew Point 74 °F    
Average Humidity 84    
Maximum Humidity 100    
Minimum Humidity 62    
Precipitation  
Precipitation 0.02 in - - ()
Sea Level Pressure  
Sea Level Pressure 29.99 in    
Wind  
Wind Speed 4 mph (ENE)    
Max Wind Speed 8 mph    
Max Gust Speed -    
Visibility 10 miles    
Events Rain , Thunderstorm    
Averages and records for this station are not official NWS values.
T = Trace of Precipitation, MM = Missing Value Source: NWS Daily Summary

Daily Weather History Graph

Daily Weather History Graph

Search for Another Location

Airport or City:

Trip Planner

Search our weather history database for the weather conditions in past years. The results will help you decide how hot, cold, wet, or windy it might be!

Date:

Astronomy

Sep. 12, 2013 Rise Set
Actual Time 7:06 AM EDT 7:30 PM EDT
Civil Twilight 6:42 AM EDT 7:54 PM EDT
Nautical Twilight 6:14 AM EDT 8:22 PM EDT
Astronomical Twilight 5:46 AM EDT 8:50 PM EDT
Moon 2:01 PM EDT (9/12) No Moon Set
Length of Visible Light 13h 11m
Length of Day
12h 24m
Waxing Crescent, 50% of the Moon is Illuminated
Sep 12
Waxing Crescent
Sep 12
First Quarter
Sep 19
Full
Sep 26
Last Quarter
Oct 4
New

Hourly Weather History & Observations

Time (EDT) Temp. Heat Index Dew Point Humidity Pressure Visibility Wind Dir Wind Speed Gust Speed Precip Events Conditions
12:58 AM 77.2 °F - 75.0 °F 93% 30.04 in 10.0 mi ESE 4.6 mph - N/A   Clear
1:58 AM 75.9 °F - 73.8 °F 93% 30.02 in 10.0 mi SE 3.5 mph - N/A   Clear
2:58 AM 74.7 °F - 74.1 °F 98% 30.01 in 10.0 mi NNE 1.2 mph - N/A   Clear
3:58 AM 73.6 °F - 73.2 °F 99% 30.00 in 10.0 mi Calm Calm - N/A   Clear
4:58 AM 72.0 °F - 71.8 °F 99% 30.00 in 10.0 mi NNE 4.6 mph - N/A   Clear
5:58 AM 72.0 °F - 71.6 °F 99% 30.00 in 10.0 mi Calm Calm - N/A   Clear
6:58 AM 71.6 °F - 71.6 °F 100% 30.01 in 7.0 mi Calm Calm - N/A   Clear
7:58 AM 72.5 °F - 72.5 °F 100% 30.02 in 10.0 mi Calm Calm - N/A   Partly Cloudy
8:58 AM 80.4 °F 87.7 °F 79.0 °F 95% 30.03 in 10.0 mi Calm Calm - N/A   Clear
9:58 AM 84.0 °F 91.2 °F 73.9 °F 72% 30.03 in 10.0 mi NNE 1.2 mph - N/A   Partly Cloudy
10:18 AM 87.8 °F 95.6 °F 73.4 °F 62% 30.02 in 10.0 mi East 6.9 mph - N/A   Mostly Cloudy
10:43 AM 84.2 °F 90.9 °F 73.4 °F 70% 30.02 in 10.0 mi East 8.1 mph - N/A   Mostly Cloudy
10:58 AM 83.7 °F 90.4 °F 73.8 °F 72% 30.03 in 10.0 mi ESE 5.8 mph - N/A   Mostly Cloudy
11:11 AM 82.4 °F 89.5 °F 75.2 °F 79% 30.03 in 6.0 mi South 4.6 mph - N/A   Light Drizzle
11:16 AM 80.6 °F 86.2 °F 75.2 °F 84% 30.03 in 7.0 mi South 5.8 mph - N/A   Light Drizzle
11:46 AM 78.8 °F - 77.0 °F 94% 30.02 in 10.0 mi South 5.8 mph - N/A   Light Drizzle
11:52 AM 80.6 °F 87.1 °F 77.0 °F 89% 30.02 in 10.0 mi Variable 5.8 mph - N/A   Mostly Cloudy
11:58 AM 81.5 °F 89.0 °F 77.0 °F 86% 30.03 in 10.0 mi Variable 4.6 mph - 0.02 in   Mostly Cloudy
12:28 PM 84.2 °F 94.1 °F 77.0 °F 79% 30.02 in 10.0 mi NNE 5.8 mph - N/A   Mostly Cloudy
12:58 PM 84.7 °F 92.8 °F 74.8 °F 72% 30.01 in 10.0 mi North 5.8 mph - N/A Thunderstorm Mostly Cloudy
1:03 PM 84.2 °F 92.3 °F 75.2 °F 74% 30.00 in 10.0 mi North 5.8 mph - N/A Thunderstorm Mostly Cloudy
1:53 PM 80.6 °F 86.2 °F 75.2 °F 84% 29.99 in 10.0 mi North 3.5 mph - N/A Rain Light Rain
1:58 PM 81.0 °F 87.1 °F 75.6 °F 84% 30.00 in 10.0 mi North 3.5 mph - 0.00 in Rain Light Rain
2:10 PM 80.6 °F 87.1 °F 77.0 °F 89% 29.99 in 10.0 mi NNE 2.3 mph - N/A   Scattered Clouds
2:58 PM 86.4 °F 94.6 °F 74.1 °F 67% 29.97 in 10.0 mi Variable 4.6 mph - 0.00 in   Scattered Clouds
3:08 PM 86.0 °F 93.4 °F 73.4 °F 66% 29.96 in 10.0 mi ENE 5.8 mph - N/A   Mostly Cloudy
3:18 PM 86.0 °F 93.4 °F 73.4 °F 66% 29.95 in 10.0 mi NE 4.6 mph - N/A Thunderstorm Mostly Cloudy
3:58 PM 85.5 °F 92.2 °F 73.0 °F 66% 29.95 in 10.0 mi ENE 5.8 mph - N/A   Mostly Cloudy
4:58 PM 86.4 °F 93.8 °F 73.4 °F 65% 29.93 in 10.0 mi ENE 6.9 mph - N/A   Clear
5:58 PM 81.7 °F 87.1 °F 73.6 °F 76% 29.93 in 10.0 mi East 6.9 mph - N/A   Partly Cloudy
6:39 PM 80.6 °F 85.4 °F 73.4 °F 79% 29.93 in 10.0 mi ESE 4.6 mph - N/A Rain Light Rain
6:52 PM 78.8 °F - 73.4 °F 83% 29.93 in 10.0 mi ESE 4.6 mph - N/A   Mostly Cloudy
6:58 PM 79.5 °F - 73.8 °F 82% 29.94 in 10.0 mi SE 3.5 mph - 0.00 in   Scattered Clouds
7:58 PM 78.4 °F - 73.8 °F 85% 29.93 in 10.0 mi South 2.3 mph - N/A   Scattered Clouds
8:58 PM 75.4 °F - 73.6 °F 94% 29.94 in 10.0 mi NW 1.2 mph - N/A   Partly Cloudy
9:58 PM 74.7 °F - 74.1 °F 98% 29.96 in 10.0 mi Calm Calm - N/A   Scattered Clouds
10:58 PM 73.2 °F - 72.9 °F 99% 29.95 in 10.0 mi Calm Calm - N/A   Clear
11:58 PM 72.5 °F - 72.3 °F 99% 29.93 in 10.0 mi Variable 2.3 mph - N/A   Clear